User: anonymous   Login
Location: ????? ????
(37.9717°N, 23.4051°E)
Time: 12:13:27
(UTC+00:00)
Language:

ERS-1 Rocket - Orbit

View from above orbital plane
View from above orbital plane
View from above satellite
View from above satellite

Ground track
Ground track

The orbit data is extracted from the following two-line orbital elements,

1 21610U 91050F   24171.92914855  .00000417  00000-0  14040-3 0  9997
2 21610  98.2894 233.7719 0003622 155.2151 204.9214 14.41893182728490
Epoch (UTC): 19 June 2024 22:17:58
Eccentricity: 0.0003622
inclination: 98.2894°
perigee height: 749 km
apogee height: 755 km
right ascension of ascending node: 233.7719°
argument of perigee: 155.2151°
revolutions per day: 14.41893182
mean anomaly at epoch: 204.9214°
orbit number at epoch: 72849

The dashed part of the orbit path shows where the satellite is in the earth's shadow,  

DLR